This is the latest recevied weather packets stored in our database for station/object KD5BIG-13. If no packets are shown the sender has not sent any weather packets the latest 10 day(s).
| Time | Temp. | Humidity | Pressure | Rain* | Wind** | Luminosity | Snow |
|---|---|---|---|---|---|---|---|
| 1777238056 | 29.44° C | 71% | 1013.8 hPa | 0 mm | - | 585 W/m² | - |
| 1777237753 | 30° C | 72% | 1013.6 hPa | 0 mm | - | 328 W/m² | - |
| 1777237450 | 29.44° C | 68% | 1013.9 hPa | 0 mm | - | 601 W/m² | - |
| 1777237147 | 29.44° C | 71% | 1014 hPa | 0 mm | - | 217 W/m² | - |
| 1777236845 | 30° C | 69% | 1013.9 hPa | 0 mm | - | 216 W/m² | - |
| 1777236544 | 29.44° C | 66% | 1014.1 hPa | 0 mm | - | 659 W/m² | - |
| 1777236241 | 29.44° C | 71% | 1014.1 hPa | 0 mm | - | 305 W/m² | - |
| 1777235936 | 30° C | 66% | 1014.2 hPa | 0 mm | - | 762 W/m² | - |
| 1777235633 | 30° C | 66% | 1014.1 hPa | 0 mm | - | 373 W/m² | - |
| 1777235330 | 29.44° C | 67% | 1014.2 hPa | 0 mm | - | 410 W/m² | - |
| 1777235026 | 29.44° C | 67% | 1014.3 hPa | 0 mm | - | 238 W/m² | - |
| 1777234723 | 29.44° C | 69% | 1014.4 hPa | 0 mm | - | 423 W/m² | - |
| 1777234418 | 30° C | 66% | 1014.3 hPa | 0 mm | - | 447 W/m² | - |
| 1777234113 | 30° C | 67% | 1014.4 hPa | 0 mm | - | 421 W/m² | - |
| 1777233810 | 29.44° C | 68% | 1014.3 hPa | 0 mm | - | 474 W/m² | - |
| 1777233506 | 30° C | 66% | 1014.4 hPa | 0 mm | - | 350 W/m² | - |
| 1777233205 | 30° C | 66% | 1014.4 hPa | 0 mm | - | 486 W/m² | - |
| 1777232901 | 30° C | 65% | 1014.5 hPa | 0 mm | - | 710 W/m² | - |
| 1777232599 | 30° C | 68% | 1014.6 hPa | 0 mm | - | 299 W/m² | - |
| 1777232298 | 30° C | 66% | 1014.5 hPa | 0 mm | - | 668 W/m² | - |
| 1777231993 | 30° C | 64% | 1014.4 hPa | 0 mm | - | 348 W/m² | - |
| 1777231691 | 30° C | 67% | 1014.5 hPa | 0 mm | - | 955 W/m² | - |
| 1777231388 | 30° C | 64% | 1014.7 hPa | 0 mm | - | 974 W/m² | - |
| 1777231083 | 30° C | 68% | 1014.9 hPa | 0 mm | - | 1050 W/m² | - |
| 1777230779 | 29.44° C | 68% | 1014.9 hPa | 0 mm | - | 1074 W/m² | - |
* Rain latest hour (hover to see other rain measurements)
** Current wind speed in m/s (hover to see current wind gust speed)